[[{"header":{"parameterUnit":"m.s-1","parameterCategory":1,"la1":30.2991,"la2":30.254,"lo1":-89.0895,"lo2":-89.0444,"dy":0.0017,"dx":0.0017,"nx":28,"ny":28,"refTime":"2024-06-27T09:00:00:Z","depth":0,"parameterNumber":2,"parameterNumberName":"U-component_of_WINDS"},"data":[0,0,0,0,0,0,0,0,0,0,0,0,0,0,0,0,0,0,0,0,0,0,0,0,0,0,0,0,0,0,0,0,0,0,0,0,0,0,0,0,0,0,0,0,0,0,0,0,0,0,0,0,0,0,0,0,0,0,2.1656,2.1658,0,2.1819,2.1821,2.1823,2.1837,2.1836,2.1834,2.1832,2.2004,2.201,2.2016,0,0,0,0,0,0,0,0,0,0,0,0,0,2.1362,2.1368,2.1656,2.1658,2.166,2.1819,2.1821,2.1823,2.1838,2.1835,2.1833,2.1831,2.2002,2.2009,2.2016,0,0,0,0,0,0,0,0,0,0,0,0,0,2.1504,2.1369,2.1656,2.1686,2.1691,2.1818,2.1821,2.1824,2.1838,2.1835,2.1833,2.183,2.1999,2.2008,2.2018,2.2127,0,0,2.2046,2.205,0,0,0,0,0,0,0,0,2.1496,2.1515,2.168,2.1684,2.169,2.1805,2.178,2.1926,2.1839,2.1782,2.1832,2.1829,2.194,2.1954,2.199,2.2135,2.2142,2.2047,2.2052,2.2056,2.2059,0,0,0,0,0,0,0,2.1486,2.1508,2.1721,2.1682,2.1688,2.1693,2.1711,2.1808,2.1874,2.1787,2.1788,2.1807,2.1942,2.1981,2.1995,2.2145,2.2046,2.2055,2.206,2.2064,2.2387,2.239,0,0,0,0,0,0,2.147,2.15,2.1715,2.1725,2.1584,2.1701,2.172,2.1771,2.1873,2.1886,2.1809,2.1807,2.1967,2.1984,2.2001,2.2135,2.2056,2.2065,2.207,2.2384,2.2388,2.2391,0,0,0,0,0,0,2.1463,2.1489,2.1709,2.1613,2.1641,2.1709,2.1765,2.1775,2.1814,2.189,2.1902,2.1837,2.1966,2.1988,2.2095,2.2142,2.2069,2.2078,2.2381,2.2386,2.239,2.2406,0,0,0,0,0,0,2.1455,2.1487,2.1528,2.1614,2.1646,2.1799,2.1768,2.178,2.183,2.1829,2.1919,2.1931,2.1965,2.2081,2.2104,2.2153,2.2085,2.2377,2.2383,2.2388,2.2401,2.241,2.2418,0,0,0,0,0,2.1444,2.1527,2.153,2.1556,2.1699,2.1802,2.1821,2.1856,2.1833,2.1876,2.1924,2.1928,2.2133,2.2092,2.2118,2.2171,2.2374,2.2381,2.2388,2.2398,2.2408,2.2418,0,0,0,0,0,0,2.1447,2.1539,2.1543,2.1656,2.172,2.1804,2.1859,2.1867,2.1941,2.1937,2.198,2.2,2.2106,2.2149,2.2102,2.2282,2.2251,2.2264,2.225,2.2261,2.2269,2.2256,2.2093,0,0,0,0,0,2.146,2.1534,2.1611,2.1703,2.1735,2.1791,2.1838,2.1859,2.1929,2.1957,2.2013,2.2082,2.2162,2.2214,2.2291,2.2407,2.2428,2.2456,2.2465,2.2471,2.2481,2.2546,2.256,2.2414,2.2414,2.2413,0,0,2.1489,2.1548,2.1593,2.1705,2.1758,2.1835,2.1815,2.1897,2.1955,2.197,2.2075,2.2118,2.2198,2.231,2.2363,2.2349,2.2526,2.248,2.2484,2.2491,2.2555,2.2568,2.2581,2.2418,2.2417,2.2417,0,0,2.1581,2.1633,2.1715,2.1768,2.1848,2.1884,2.1904,2.1986,2.2015,2.212,2.2133,2.2204,2.234,2.2396,2.2442,2.2555,2.2561,2.2579,2.2622,2.2685,2.2696,2.2707,2.2747,2.2761,2.2589,2.2589,2.2589,0,2.1607,2.1722,2.1757,2.1839,2.1888,2.1903,2.1987,2.2038,2.2139,2.2174,2.2157,2.2328,2.2383,2.2508,2.2535,2.2572,2.2597,2.2569,2.2692,2.2703,2.2713,2.2752,2.2767,2.2591,2.259,2.259,2.259,0,2.175,2.183,2.1887,2.1983,2.2039,2.2122,2.217,2.2222,2.2239,2.2278,2.2385,2.2451,2.2542,2.2573,2.2591,2.2702,2.2691,2.2682,2.2653,2.2728,2.2765,2.278,2.2593,2.2592,2.2592,2.2591,0,0,2.1849,2.1962,2.1982,2.2026,2.2114,2.2178,2.2261,2.2348,2.2393,2.2462,2.2534,2.2649,2.2641,2.2694,2.2718,2.2773,2.2858,2.2758,2.2761,2.2775,2.2984,2.299,2.3007,2.2863,2.2866,2.2868,2.2978,0,2.1951,2.2099,2.2132,2.2259,2.2334,2.2349,2.2422,2.2485,2.2524,2.2594,2.2637,2.2717,2.2701,2.2733,2.2788,2.2836,2.2901,2.2829,2.2931,2.2935,2.2911,2.3026,2.3033,2.3133,2.2992,2.2995,2.2997,0,2.209,2.216,2.2295,2.2373,2.2406,2.2471,2.2553,2.2619,2.2691,2.2716,2.2774,2.2792,2.2881,2.2846,2.297,2.292,2.2964,2.2994,2.2999,2.3011,2.297,2.3041,2.3166,2.3181,2.302,2.3018,2.3016,0,2.2148,2.2277,2.2374,2.2411,2.2505,2.255,2.2592,2.2661,2.2711,2.2784,2.2817,2.29,2.2945,2.3009,2.305,2.3021,2.3171,2.3139,2.3194,2.3193,2.3226,2.3223,2.336,2.3253,2.3253,2.3253,2.3253,0,2.2259,2.2341,2.2402,2.2461,2.2554,2.2592,2.2682,2.2724,2.2786,2.2855,2.2874,2.2938,2.2988,2.306,2.3093,2.3191,2.3211,2.3234,2.3242,2.3233,2.323,2.3263,2.3257,2.3257,2.3256,2.3255,2.3254,0,2.234,2.2384,2.2491,2.257,2.2592,2.2657,2.2726,2.2785,2.2823,2.2911,2.2933,2.2994,2.308,2.3126,2.3235,2.3257,2.3366,2.337,2.3341,2.3344,2.3397,2.3391,2.356,2.3584,2.3461,2.3462,2.3463,0,2.2408,2.2471,2.2557,2.2603,2.2645,2.2721,2.2771,2.2811,2.2864,2.295,2.2999,2.3085,2.3156,2.3293,2.3348,2.3431,2.3437,2.349,2.345,2.3438,2.3439,2.3434,2.3441,2.3497,2.3499,2.35,2.35,0,2.2524,2.2542,2.2614,2.2693,2.2753,2.2818,2.2882,2.292,2.297,2.3029,2.3115,2.317,2.3279,2.3365,2.3452,2.3497,2.3508,2.3512,2.353,2.3521,2.3502,2.3513,2.3361,2.3509,2.3508,2.3507,2.3507,2.3506,2.2601,2.2658,2.2726,2.2806,2.2858,2.2917,2.2976,2.3021,2.3094,2.3185,2.3204,2.3296,2.3367,2.3484,2.3531,2.3604,2.3594,2.3619,2.3626,2.3631,2.3634,2.3489,2.3621,2.362,2.362,2.362,2.362,0,2.2718,2.2763,2.2835,2.2924,2.2986,2.2988,2.306,2.3112,2.3192,2.3257,2.3326,2.3426,2.3509,2.3569,2.3655,2.3702,2.3709,2.3723,2.372,2.373,2.3638,2.3614,2.3716,2.3716,2.3715,2.3715,2.3715,2.3715,2.2786,2.2882,2.2909,2.3031,2.3075,2.3164,2.3205,2.326,2.3311,2.3421,2.349,2.3528,2.3591,2.3681,2.3758,2.3774,2.3805,2.3818,2.3835,2.3747,2.3737,2.3727,2.3705,2.3824,2.3824,2.3922,2.3922,2.3923]},{"header":{"parameterUnit":"m.s-1","parameterCategory":1,"la1":30.2991,"la2":30.254,"lo1":-89.0895,"lo2":-89.0444,"dy":0.0017,"dx":0.0017,"nx":28,"ny":28,"refTime":"2024-06-27T09:00:00:Z","depth":0,"parameterNumber":3,"parameterNumberName":"V-component_of_WINDS"},"data":[0,0,0,0,0,0,0,0,0,0,0,0,0,0,0,0,0,0,0,0,0,0,0,0,0,0,0,0,0,0,0,0,0,0,0,0,0,0,0,0,0,0,0,0,0,0,0,0,0,0,0,0,0,0,0,0,0,0,5.9921,5.9923,0,6.0064,6.0066,6.0067,6.0068,6.0067,6.0065,6.0063,6.0199,6.0204,6.0209,0,0,0,0,0,0,0,0,0,0,0,0,0,5.9639,5.9644,5.9921,5.9923,5.9925,6.0064,6.0066,6.0068,6.0069,6.0067,6.0064,6.0062,6.0197,6.0204,6.021,0,0,0,0,0,0,0,0,0,0,0,0,0,5.9769,5.9646,5.9921,5.9942,5.9946,6.0063,6.0066,6.0068,6.0069,6.0067,6.0064,6.0061,6.0195,6.0203,6.0211,6.0313,0,0,6.0235,6.0238,0,0,0,0,0,0,0,0,5.9762,5.9779,5.9937,5.9941,5.9945,6.0046,6.0016,6.015,6.007,6.0022,6.0063,6.006,6.015,6.0161,6.0193,6.032,6.0326,6.0236,6.0241,6.0244,6.0246,0,0,0,0,0,0,0,5.9753,5.9773,5.9977,5.9939,5.9944,5.9941,5.9957,6.0041,6.0099,6.0026,6.0026,6.0044,6.0151,6.0186,6.0197,6.0328,6.0236,6.0243,6.0247,6.0251,6.0543,6.0546,0,0,0,0,0,0,5.9741,5.9766,5.9973,5.9981,5.9845,5.9949,5.9966,6.0016,6.0098,6.0108,6.0046,6.0043,6.0174,6.0187,6.0201,6.0326,6.0244,6.0251,6.0256,6.054,6.0544,6.0547,0,0,0,0,0,0,5.9735,5.9759,5.9967,5.9874,5.99,5.9956,6.0012,6.002,6.0055,6.0113,6.0122,6.0072,6.0172,6.019,6.0286,6.0331,6.0255,6.0262,6.0537,6.0541,6.0545,6.0576,0,0,0,0,0,0,5.9727,5.9757,5.9799,5.9875,5.9905,6.0052,6.0015,6.0025,6.007,6.0068,6.014,6.0149,6.0171,6.0274,6.0294,6.034,6.0268,6.0533,6.0539,6.0544,6.0571,6.0581,6.0589,0,0,0,0,0,5.9717,5.98,5.9801,5.9826,5.996,6.0055,6.0072,6.0099,6.0074,6.0115,6.0152,6.0147,6.0323,6.0284,6.0306,6.0355,6.053,6.0537,6.0544,6.0567,6.0579,6.0589,0,0,0,0,0,0,5.9724,5.981,5.9813,5.9924,5.9983,6.0055,6.0108,6.0111,6.0175,6.017,6.0198,6.0214,6.0309,6.0342,6.0297,6.0458,6.0423,6.0434,6.0433,6.0445,6.0454,6.0443,6.0275,0,0,0,0,0,5.974,5.9813,5.9883,5.9974,6.0004,6.0051,6.0093,6.011,6.017,6.0193,6.0238,6.0293,6.0361,6.0405,6.0471,6.0576,6.059,6.0621,6.063,6.0637,6.0646,6.0703,6.0716,6.0569,6.0569,6.0569,0,0,5.977,5.9827,5.9871,5.9977,6.0025,6.0097,6.0071,6.0149,6.0202,6.0204,6.0298,6.0332,6.0396,6.0497,6.0543,6.0527,6.069,6.0646,6.0651,6.0656,6.0711,6.0725,6.0737,6.0574,6.0573,6.0572,0,0,5.9864,5.9915,5.9996,6.0045,6.0118,6.0149,6.0168,6.0241,6.0265,6.036,6.0363,6.0424,6.0541,6.0586,6.0624,6.0735,6.0732,6.0755,6.0802,6.0857,6.0868,6.0879,6.0916,6.093,6.0765,6.0765,6.0765,0,5.9892,6.0005,6.0036,6.0116,6.0161,6.017,6.025,6.0294,6.0384,6.0413,6.0395,6.0542,6.0585,6.0696,6.0723,6.0754,6.0775,6.0747,6.0865,6.0875,6.0885,6.0921,6.0936,6.0767,6.0767,6.0766,6.0766,0,6.0035,6.0113,6.0169,6.0259,6.0311,6.039,6.043,6.0478,6.049,6.0521,6.0617,6.067,6.0746,6.0773,6.0784,6.0885,6.0873,6.086,6.0824,6.0901,6.0935,6.095,6.077,6.0769,6.0769,6.0768,0,0,6.0136,6.0244,6.0264,6.0304,6.0386,6.0445,6.0523,6.0601,6.064,6.0701,6.0765,6.0864,6.0853,6.0896,6.0912,6.096,6.1042,6.094,6.0942,6.0956,6.1154,6.1163,6.1178,6.1041,6.1044,6.1046,6.1148,0,6.0237,6.038,6.0411,6.0533,6.0603,6.0613,6.0681,6.0736,6.0767,6.0829,6.0862,6.0932,6.0912,6.0938,6.0986,6.1022,6.1082,6.1015,6.1097,6.11,6.108,6.1197,6.1206,6.13,6.1162,6.1164,6.1166,0,6.0373,6.0442,6.0572,6.0644,6.0674,6.0735,6.0808,6.0869,6.093,6.095,6.0999,6.101,6.1087,6.105,6.1156,6.111,6.1146,6.1168,6.1172,6.1179,6.1136,6.1205,6.1331,6.1344,6.1188,6.1186,6.1184,0,6.0432,6.0556,6.065,6.0684,6.0771,6.0813,6.085,6.091,6.0954,6.1017,6.1046,6.1116,6.1153,6.1206,6.1234,6.1204,6.1337,6.1302,6.1352,6.1351,6.1378,6.1376,6.1509,6.1404,6.1404,6.1404,6.1403,0,6.054,6.0619,6.0677,6.0735,6.0822,6.0855,6.0939,6.0976,6.1029,6.1091,6.1102,6.1159,6.1194,6.1255,6.1277,6.136,6.1377,6.1392,6.1397,6.1391,6.1388,6.1413,6.1406,6.1407,6.1406,6.1406,6.1405,0,6.062,6.0663,6.0765,6.084,6.086,6.0921,6.0983,6.1037,6.1069,6.1147,6.1167,6.1216,6.1289,6.1323,6.1411,6.1426,6.152,6.1521,6.15,6.1501,6.1549,6.1543,6.1701,6.1723,6.1605,6.1606,6.1607,0,6.0685,6.0747,6.0829,6.0873,6.0913,6.0983,6.103,6.1064,6.1111,6.1186,6.123,6.1304,6.1365,6.148,6.1521,6.1588,6.159,6.164,6.1599,6.1591,6.1588,6.1583,6.1589,6.1647,6.1648,6.1649,6.165,0,6.0797,6.0815,6.0884,6.096,6.1016,6.1076,6.1135,6.117,6.1213,6.1265,6.1341,6.1388,6.1481,6.1552,6.1623,6.1657,6.1659,6.1663,6.1678,6.1671,6.1656,6.1663,6.1518,6.1658,6.1658,6.1657,6.1656,6.1656,6.087,6.0925,6.0992,6.1067,6.1116,6.1171,6.1226,6.1266,6.1331,6.1411,6.1427,6.1507,6.1565,6.1661,6.1697,6.1758,6.1746,6.1768,6.1773,6.1777,6.1779,6.1648,6.1771,6.1771,6.1771,6.1771,6.177,0,6.0981,6.1025,6.1094,6.1178,6.1237,6.1239,6.1304,6.1352,6.1424,6.148,6.154,6.1626,6.1696,6.1744,6.1814,6.1853,6.1856,6.187,6.1866,6.1874,6.1787,6.1767,6.1867,6.1867,6.1867,6.1867,6.1867,6.1866,6.1045,6.1137,6.1163,6.1278,6.1321,6.1403,6.1439,6.1489,6.1534,6.1632,6.1691,6.1723,6.1775,6.1848,6.1911,6.1923,6.1947,6.1962,6.1973,6.189,6.188,6.187,6.1851,6.1967,6.1967,6.2054,6.2055,6.2056]}]]